LFMNLFKC

Guest
Details From LFMN - Nice/Cote d'Azur
To LFKC - St Catherine
Flight Number -
Tags generated
Created
Modified
Stats Distance 97 nm / 179 km
Max Altitude 3,400 ft / 1,036 m
Waypoints 3
Social Downloads 14
Likes 0
Share VATSIM

Download

Looking for another format? Having issues loading an existing format? Contact us
Advertisement - Login to hide

Notes

Basic altitude profile: - Ascent Rate: 2500ft/min - Ascent Speed: 250kts - Cruise Altitude: 35000ft - Cruise Speed: 420kts - Descent Rate: 1500ft/min - Descent Speed: 250kts Options: - Use NATs: yes - Use PACOTS: yes - Use low airways: yes - Use high airways: yes

Route

LFMN GORIT LFKC

ID Type Via Altitude (ft/m) Position (lat/lon) Dist (leg/tot) Name
O LFMN APT - 0 / 0 43.65798 / 7.21536 - / 0 nm Nice/Cote d'Azur
GORIT FIX - 3,400 / 1,036 42.71694 / 8.52806 80 / 80 nm
O LFKC APT - 0 / 0 42.53076 / 8.79292 16 / 96 nm St Catherine

Altitude Profile

Advertisement - Login to hide

LFMN

Details ICAO LFMN (NCE)
Name Nice-Cote d'Azur
Region France
Timezone Unknown
Stats Elevation 12 ft / 4 m (AMSL)
Location 43.658400° 7.215760°
Runways 2
Magnetic Variation 2.278° E

METAR

LFMN 090930Z AUTO 15002KT CAVOK 19/03 Q1023 NOSIG

Decode

TAF

TAF LFMN 090800Z 0909/1015 12009KT CAVOK BECMG 0919/0921 33010KT PROB30 TEMPO 1010/1015 18010KT

Decode

Departure Runways

ID Width Length Bearing (true/mag) Surface Threshold Overrun Markings Lighting
04L 148 ft / 45 m 8,992 ft / 2,741 m 44.86° / 42.58° ASPHALT 0 ft / 0 m 161 ft / 49 m PREC-APP CENTERLINE EDGE THRESHOLD REIL-OMNI
04R 148 ft / 45 m 9,706 ft / 2,958 m 44.86° / 42.58° ASPHALT 0 ft / 0 m 417 ft / 127 m PREC-APP CENTERLINE EDGE THRESHOLD REIL-OMNI
22L 148 ft / 45 m 9,706 ft / 2,958 m 224.88° / 222.60° ASPHALT 0 ft / 0 m 525 ft / 160 m PREC-APP CENTERLINE EDGE THRESHOLD REIL-OMNI
22R 148 ft / 45 m 8,992 ft / 2,741 m 224.88° / 222.60° ASPHALT 564 ft / 172 m 0 ft / 0 m PREC-APP CENTERLINE EDGE THRESHOLD REIL-OMNI

LFKC

Details ICAO LFKC (CLY)
Name St Catherine
Region France
Timezone Europe/Paris (UTC+2.0)
Stats Elevation 208 ft / 63 m (AMSL)
Location 42.530800° 8.792980°
Runways 1
Magnetic Variation 2.594° E

METAR

LFKC 090930Z AUTO 35007KT 310V020 CAVOK 20/M03 Q1023 NOSIG

Decode

TAF

TAF LFKC 090200Z 0909/1009 VRB02KT CAVOK TX21/0912Z TN09/1004Z= TAF LFKF 090800Z 0909/1009 VRB02KT CAVOK PROB30 TEMPO 0910/0915 VRB12KT SHRA SCT060TCU

Decode

Destination Runways

ID Width Length Bearing (true/mag) Surface Threshold Overrun Markings Lighting
18 131 ft / 40 m 7,586 ft / 2,312 m 179.81° / 177.22° CONCRETE 0 ft / 0 m 0 ft / 0 m APP CENTERLINE EDGE THRESHOLD
36 131 ft / 40 m 7,586 ft / 2,312 m 359.81° / 357.22° CONCRETE 663 ft / 202 m 0 ft / 0 m APP CENTERLINE EDGE THRESHOLD ALSF-I

Approach Navaids

Runway Type Ident Frequency Range Bearing (true/mag) Slope Elevation
18 LOC-LOC CLI 109.50 MHz 18 nm / 33 km 179.81° / 177.22 ° - 208 ft / 63 m (AMSL)
18 DME CLI 109.50 MHz 18 nm / 33 km - - 230 ft / 70 m (AMSL)

Popular Alternatives